Weather History for Shannon, Ireland

Change the Weather History Date:

Friday, May 24, 2013

  Actual Average Record
Temperature  
Mean Temperature 50 °F -  
Max Temperature 58 °F 63 °F 77 °F (2012)
Min Temperature 43 °F 49 °F 42 °F (1997)
Degree Days  
Heating Degree Days 14    
Moisture  
Dew Point 39 °F    
Average Humidity 65    
Maximum Humidity 87    
Minimum Humidity 43    
Precipitation  
Precipitation 0.00 in 0.08 in - ()
Sea Level Pressure  
Sea Level Pressure 30.18 in    
Wind  
Wind Speed 12 mph ()    
Max Wind Speed 22 mph    
Max Gust Speed 36 mph    
Visibility 6.7 miles    
Events      
Averages and records for this station are not official NWS values.
T = Trace of Precipitation, MM = Missing Value Source: Averaged Metar Reports

Daily Weather History Graph

Daily Weather History Graph

Search for Another Location

Airport:

Trip Planner

Search our weather history database for the weather conditions in past years. The results will help you decide how hot, cold, wet, or windy it might be!

Date:

Astronomy

May. 24, 2013 Rise Set
Actual Time 5:26 AM IST 9:39 PM IST
Civil Twilight 4:40 AM IST 10:26 PM IST
Nautical Twilight 3:32 AM IST 11:34 PM IST
Astronomical Twilight 2:04 AM IST 1:00 AM IST
Moon 9:01 PM IST (5/24) 4:56 AM IST (5/24)
Length of Visible Light 17h 45m
Length of Day
16h 13m
Waxing Gibbous, 99% of the Moon is Illuminated
May 24
Waxing Gibbous
May 25
Full
May 31
Last Quarter
Jun 8
New
Jun 16
First Quarter

Hourly Weather History & Observations

Time (IST) Temp. Windchill Dew Point Humidity Pressure Visibility Wind Dir Wind Speed Gust Speed Precip Events Conditions
12:00 AM 44.6 °F 38.8 °F 39.2 °F 81% 30.21 in 6.2 mi WNW 11.5 mph - N/A   Partly Cloudy
12:30 AM 44.6 °F 39.2 °F 39.2 °F 81% 30.21 in 6.2 mi WNW 10.4 mph - N/A   Partly Cloudy
1:00 AM 44 °F - 37 °F 70% 30.21 in 19 mi West 11.2 mph - -   Scattered Clouds
1:00 AM 42.8 °F 36.6 °F 37.4 °F 81% 30.21 in 6.2 mi West 11.5 mph - N/A   Partly Cloudy
1:30 AM 44.6 °F 39.7 °F 37.4 °F 76% 30.18 in 6.2 mi West 9.2 mph - N/A   Partly Cloudy
2:00 AM 44.6 °F 38.8 °F 37.4 °F 76% 30.18 in 6.2 mi WNW 11.5 mph - N/A   Partly Cloudy
2:30 AM 42.8 °F 36.2 °F 37.4 °F 81% 30.18 in 6.2 mi WNW 12.7 mph - N/A   Partly Cloudy
3:00 AM 44.6 °F 38.8 °F 37.4 °F 76% 30.18 in 6.2 mi WNW 11.5 mph - N/A   Partly Cloudy
3:30 AM 42.8 °F 36.2 °F 37.4 °F 81% 30.18 in 6.2 mi WNW 12.7 mph - N/A   Partly Cloudy
4:00 AM 44.6 °F 39.2 °F 39.2 °F 81% 30.15 in 6.2 mi West 10.4 mph - N/A   Partly Cloudy
4:30 AM 44.6 °F 38.4 °F 37.4 °F 76% 30.15 in 6.2 mi West 12.7 mph - N/A   Partly Cloudy
5:00 AM 44.6 °F 39.2 °F 37.4 °F 76% 30.15 in 6.2 mi West 10.4 mph - N/A   Scattered Clouds
5:30 AM 44.6 °F 38.1 °F 37.4 °F 76% 30.15 in 6.2 mi West 13.8 mph - N/A   Mostly Cloudy
6:00 AM 46.4 °F 41.5 °F 39.2 °F 76% 30.15 in 6.2 mi WNW 10.4 mph - N/A   Mostly Cloudy
6:30 AM 46.4 °F 41.5 °F 39.2 °F 76% 30.15 in 6.2 mi WNW 10.4 mph - N/A   Mostly Cloudy
7:00 AM 47 °F - 40 °F 67% 30.17 in 19 mi NW 13.4 mph - -   Mostly Cloudy
7:00 AM 46.4 °F 40.4 °F 39.2 °F 76% 30.15 in 6.2 mi NW 13.8 mph - N/A   Mostly Cloudy
7:30 AM 46.4 °F 41.1 °F 39.2 °F 76% 30.15 in 6.2 mi NW 11.5 mph - N/A   Mostly Cloudy
8:00 AM 48.2 °F - 39.2 °F 71% 30.18 in 6.2 mi WNW 9.2 mph - N/A   Mostly Cloudy
8:30 AM 48.2 °F - 39.2 °F 71% 30.18 in 6.2 mi NNW 17.3 mph - N/A   Mostly Cloudy
9:00 AM 50.0 °F - 37.4 °F 62% 30.18 in 6.2 mi NW 18.4 mph - N/A   Mostly Cloudy
9:30 AM 50.0 °F - 37.4 °F 62% 30.18 in 6.2 mi NNW 19.6 mph - N/A   Mostly Cloudy
10:00 AM 50.0 °F - 35.6 °F 58% 30.18 in 6.2 mi NNW 16.1 mph 28.8 mph N/A   Mostly Cloudy
10:30 AM 51.8 °F - 37.4 °F 58% 30.18 in 6.2 mi NNW 18.4 mph 34.5 mph N/A   Scattered Clouds
11:00 AM 51.8 °F - 37.4 °F 58% 30.18 in 6.2 mi NNW 21.9 mph 35.7 mph N/A   Mostly Cloudy
11:30 AM 51.8 °F - 37.4 °F 58% 30.18 in 6.2 mi NNW 18.4 mph - N/A   Mostly Cloudy
12:00 PM 53.6 °F - 37.4 °F 54% 30.18 in 6.2 mi NNW 18.4 mph - N/A   Mostly Cloudy
12:30 PM 53.6 °F - 39.2 °F 58% 30.15 in 6.2 mi NNW 19.6 mph - N/A   Scattered Clouds
1:00 PM 54 °F - 39 °F 45% 30.17 in 31 mi NNW 20.1 mph - -   Mostly Cloudy
1:00 PM 53.6 °F - 39.2 °F 58% 30.15 in 6.2 mi NNW 19.6 mph - N/A   Mostly Cloudy
1:30 PM 55.4 °F - 37.4 °F 51% 30.18 in 6.2 mi NNW 17.3 mph - N/A   Mostly Cloudy
2:00 PM 55.4 °F - 37.4 °F 51% 30.15 in 6.2 mi NNW 19.6 mph - N/A   Mostly Cloudy
2:30 PM 57.2 °F - 39.2 °F 51% 30.15 in 6.2 mi North 18.4 mph - N/A   Scattered Clouds
3:00 PM 57.2 °F - 39.2 °F 51% 30.15 in 6.2 mi NNW 13.8 mph - N/A   Scattered Clouds
3:30 PM 57.2 °F - 39.2 °F 51% 30.15 in 6.2 mi NW 20.7 mph - N/A   Mostly Cloudy
4:00 PM 57.2 °F - 39.2 °F 51% 30.15 in 6.2 mi North 16.1 mph - N/A   Mostly Cloudy
4:30 PM 57.2 °F - 39.2 °F 51% 30.18 in 6.2 mi NNW 13.8 mph - N/A   Mostly Cloudy
5:00 PM 57.2 °F - 39.2 °F 51% 30.18 in 6.2 mi NNE 17.3 mph - N/A   Mostly Cloudy
5:30 PM 57.2 °F - 39.2 °F 51% 30.18 in 6.2 mi North 11.5 mph - N/A   Scattered Clouds
6:00 PM 57.2 °F - 39.2 °F 51% 30.18 in 6.2 mi North 11.5 mph - N/A   Scattered Clouds
6:30 PM 57.2 °F - 39.2 °F 51% 30.18 in 6.2 mi NNE 13.8 mph - N/A   Scattered Clouds
7:00 PM 56 °F - 40 °F 43% 30.21 in 37 mi North 13.4 mph - -   Mostly Cloudy
7:00 PM 55.4 °F - 39.2 °F 54% 30.18 in 6.2 mi North 12.7 mph - N/A   Scattered Clouds
7:30 PM 57.2 °F - 39.2 °F 51% 30.18 in 6.2 mi North 10.4 mph - N/A   Partly Cloudy
8:00 PM 55.4 °F - 39.2 °F 54% 30.21 in 6.2 mi NNW 6.9 mph - N/A   Partly Cloudy
8:30 PM 55.4 °F - 39.2 °F 54% 30.21 in 6.2 mi North 5.8 mph - N/A   Partly Cloudy
9:00 PM 53.6 °F - 41.0 °F 62% 30.21 in 6.2 mi NNW 6.9 mph - N/A   Partly Cloudy
9:30 PM 50.0 °F - 41.0 °F 71% 30.21 in 6.2 mi NNW 3.5 mph - N/A   Scattered Clouds
10:00 PM 48.2 °F - 41.0 °F 76% 30.21 in 6.2 mi NNW 3.5 mph - N/A   Partly Cloudy
10:30 PM 48.2 °F - 41.0 °F 76% 30.21 in - NW 3.5 mph - N/A   Clear
11:00 PM 46.4 °F - 41.0 °F 81% 30.21 in - NW 1.2 mph - N/A   Clear
11:30 PM 46.4 °F - 42.8 °F 87% 30.21 in - Variable 1.2 mph - N/A   Clear